This is the latest recevied weather packets stored in our database for station/object WD7OO. If no packets are shown the sender has not sent any weather packets the latest 10 day(s).
| Time | Temp. | Humidity | Pressure | Rain* | Wind** | Luminosity | Snow |
|---|---|---|---|---|---|---|---|
| 1778125605 | 8.89° C | 57% | 1014.9 hPa | 0 mm | - | 0 W/m² | - |
| 1778125303 | 8.89° C | 57% | 1015.2 hPa | 0 mm | - | 0 W/m² | - |
| 1778125001 | 8.89° C | 56% | 1014.9 hPa | 0 mm | - | 0 W/m² | - |
| 1778124698 | 8.89° C | 56% | 1014.8 hPa | 0 mm | - | 0 W/m² | - |
| 1778124395 | 9.44° C | 55% | 1014.7 hPa | 0 mm | - | 0 W/m² | - |
| 1778124091 | 9.44° C | 56% | 1014.8 hPa | 0 mm | - | 0 W/m² | - |
| 1778123788 | 9.44° C | 57% | 1014.8 hPa | 0 mm | - | 0 W/m² | - |
| 1778123484 | 9.44° C | 56% | 1014.8 hPa | 0 mm | - | 0 W/m² | - |
| 1778123181 | 9.44° C | 56% | 1014.7 hPa | 0 mm | - | 0 W/m² | - |
| 1778122879 | 9.44° C | 55% | 1014.7 hPa | 0 mm | - | 0 W/m² | - |
| 1778122576 | 9.44° C | 56% | 1014.7 hPa | 0 mm | - | 0 W/m² | - |
| 1778122273 | 9.44° C | 53% | 1014.7 hPa | 0 mm | - | 0 W/m² | - |
| 1778121971 | 10° C | 54% | 1014.5 hPa | 0 mm | - | 0 W/m² | - |
| 1778121668 | 10° C | 54% | 1014.7 hPa | 0 mm | - | 0 W/m² | - |
| 1778121363 | 10° C | 53% | 1014.6 hPa | 0 mm | - | 0 W/m² | - |
| 1778121061 | 10° C | 53% | 1014.8 hPa | 0 mm | - | 0 W/m² | - |
| 1778120758 | 10° C | 53% | 1014.4 hPa | 0 mm | - | 0 W/m² | - |
| 1778120453 | 10° C | 53% | 1014.5 hPa | 0 mm | - | 0 W/m² | - |
| 1778120149 | 10° C | 51% | 1014.6 hPa | 0 mm | - | 0 W/m² | - |
| 1778119846 | 10.56° C | 53% | 1014.2 hPa | 0 mm | - | 0 W/m² | - |
| 1778119544 | 10.56° C | 51% | 1014.3 hPa | 0 mm | - | 0 W/m² | - |
| 1778119240 | 10.56° C | 51% | 1014.3 hPa | 0 mm | - | 0 W/m² | - |
| 1778118938 | 10.56° C | 51% | 1014.2 hPa | 0 mm | - | 0 W/m² | - |
| 1778118636 | 10.56° C | 52% | 1014.2 hPa | 0 mm | - | 0 W/m² | - |
| 1778118332 | 10.56° C | 50% | 1014.2 hPa | 0 mm | - | 0 W/m² | - |
* Rain latest hour (hover to see other rain measurements)
** Current wind speed in m/s (hover to see current wind gust speed)